TIANMU-1 18

Last updated on Mon Nov 03 2025 00:02:25 GMT+0000 (Coordinated Universal Time)

1 58703U 24004D 25306.55847631 .00006598 00000+0 27762-3 0 9992 2 58703 97.4637 128.1992 0005648 74.5732 285.6129 15.23709934101226
UTC large
Height (km)
Speed (km/s)
/
Latitude / Longitude
Inclination (degrees)
Orbital Period (minutes)
Azimuth
Elevation
Range (km)
Doppler Factor

Next 0 passes for location: London (51.5072 / 0.1276)

Sorry there are no passes over London.